Wind_Speed
13 13 12 11 12 14 14 14 15 15 15 18 21 22 22 20 20 22 23 23 23 23 21 20 21 20 20 21 21 20 20 20 20 19 18 18 17 16 16 16 15 15 15 15
14 12 12 13 14 16 16 16 16 16 17 19 21 21 22 21 21 22 23 24 24 23 22 22 21 20 21 21 21 20 20 20 20 19 19 18 18 17 16 17 16 15 15 15
15 14 15 15 16 16 16 17 18 19 18 19 20 21 23 21 21 23 23 23 23 22 23 22 21 20 21 21 20 20 20 20 19 20 19 18 18 18 17 18 17 16 15 15
16 16 18 17 16 17 17 17 19 19 19 20 20 21 21 22 22 23 23 22 22 22 23 23 22 20 20 21 21 20 20 19 19 19 19 19 19 20 19 18 17 16 16 16
16 17 19 20 18 19 18 19 19 18 19 21 20 20 21 23 23 22 22 23 22 23 23 23 23 21 21 21 21 20 19 19 19 19 19 19 19 19 19 18 17 17 17 17
17 17 19 19 19 18 18 18 18 18 19 22 19 20 22 22 20 19 21 22 24 24 23 23 23 22 21 21 20 20 20 20 20 20 20 19 19 19 18 18 18 18 18 18
18 18 18 19 19 17 18 18 18 18 18 20 19 21 20 19 18 20 22 22 24 24 24 23 23 22 21 20 20 19 19 19 19 19 19 19 19 19 19 19 18 19 19 19
18 18 18 20 19 18 18 18 18 18 18 18 18 19 20 20 20 21 22 23 24 24 24 22 22 20 20 19 19 19 19 19 19 19 19 19 19 19 20 19 20 20 20 20
19 19 18 18 18 17 17 18 17 18 19 19 18 17 18 18 21 21 21 23 23 23 22 21 21 20 20 19 19 19 19 19 19 19 19 19 19 19 19 20 20 21 20 20
20 21 20 19 19 18 17 18 17 18 19 19 18 19 20 20 21 21 22 22 23 23 22 21 20 19 19 19 19 18 18 19 18 18 18 18 18 19 19 20 20 20 19 20
22 22 22 22 21 19 17 18 19 19 20 20 20 19 20 22 22 22 22 23 22 21 21 20 20 19 18 18 19 18 18 18 18 18 18 18 18 18 19 20 21 21 20 19
23 24 24 23 21 20 20 20 20 21 21 21 21 22 22 24 23 21 21 22 22 21 21 21 19 18 17 17 17 19 19 19 19 19 19 18 19 19 20 20 21 21 20 20
24 25 25 23 22 21 22 22 22 23 23 22 22 24 23 24 24 22 22 22 22 21 20 19 19 18 18 18 18 19 20 20 19 19 19 19 19 20 20 20 20 20 19 19
25 26 26 25 23 22 22 22 22 23 24 24 23 25 24 24 25 24 23 21 22 22 21 21 21 20 19 19 19 19 19 20 20 20 20 20 19 19 20 19 18 19 19 20
24 25 26 26 25 25 26 26 25 24 24 24 25 26 27 25 25 24 23 22 22 23 22 21 21 21 21 20 20 20 20 20 21 21 21 20 19 18 18 18 19 20 20 20
25 25 26 26 25 25 26 27 26 26 26 26 27 28 27 27 25 24 23 22 22 21 22 22 21 21 21 21 21 21 21 21 20 20 19 19 19 19 19 19 20 21 21 21
25 26 26 26 25 26 27 26 25 25 26 26 28 29 30 28 26 25 25 23 23 22 21 22 21 20 20 21 21 21 21 20 20 19 19 19 20 20 20 21 21 21 21 22
26 25 25 25 25 27 27 26 26 25 26 27 28 28 28 27 26 26 26 24 24 24 23 23 22 21 20 20 20 20 20 19 19 19 20 20 20 21 21 21 21 22 22 23
25 25 25 24 24 26 27 27 26 27 27 26 26 26 26 26 26 25 26 25 24 25 24 23 22 22 20 19 19 19 19 19 20 21 21 22 22 22 22 23 23 23 24 24
24 24 24 25 26 27 27 27 27 27 28 27 26 26 26 26 26 26 27 27 25 25 24 23 22 21 21 20 19 19 19 20 21 21 22 22 23 23 23 24 24 23 23 23
24 24 24 25 26 28 27 28 28 29 29 28 27 26 26 27 27 27 27 26 26 25 24 23 22 22 21 21 20 20 20 21 22 22 23 23 24 24 24 24 24 23 24 24
23 23 24 25 25 27 27 27 28 29 29 29 28 27 26 26 27 27 26 25 25 24 23 22 22 22 21 22 22 21 21 22 22 22 23 23 23 23 23 23 24 24 24 25
23 23 23 25 26 27 27 27 28 29 29 28 26 27 26 25 25 24 24 24 22 21 21 22 22 22 22 23 23 22 22 22 22 22 23 24 23 23 23 24 24 24 25 25
21 22 22 23 24 24 25 24 26 28 27 28 27 26 26 25 25 25 26 25 24 22 22 23 23 24 23 24 24 23 23 22 22 23 23 23 24 24 24 24 24 24 25 25
19 20 21 22 22 23 23 24 25 26 26 26 27 26 26 26 26 26 25 24 24 24 24 25 25 24 24 24 24 24 23 23 23 23 23 23 24 24 23 23 24 24 24 23
18 19 19 21 21 22 23 24 25 25 25 26 26 26 27 27 27 26 25 26 26 25 25 25 25 25 24 24 24 23 23 23 23 23 23 23 23 23 23 23 23 23 22 22
Wind_Direction
254 255 258 255 254 255 253 253 256 263 267 269 274 278 278 275 274 278 283 284 282 283 279 277 279 279 281 281 282 281 280 280 281 283 284 280 275 274 276 277 276 270 272 272
254 258 261 256 256 256 258 260 262 262 260 266 269 273 278 278 278 278 279 283 283 280 276 278 278 279 281 281 281 281 280 281 281 282 281 279 274 272 275 278 275 273 272 272
257 258 256 256 257 261 263 264 264 262 264 269 274 275 276 279 280 279 281 285 285 278 277 277 276 276 280 281 281 280 281 281 278 278 279 276 271 271 273 274 274 272 270 269
256 256 259 259 260 263 262 262 263 266 268 269 271 277 279 282 280 279 281 285 283 280 278 277 278 277 277 278 278 278 278 279 279 277 278 277 275 274 271 272 271 269 268 267
252 256 259 261 262 261 261 259 262 268 272 273 272 273 276 277 279 283 285 288 287 284 282 279 279 278 276 275 276 277 275 276 277 278 277 276 274 272 270 268 268 267 264 265
251 253 257 261 264 265 263 265 267 270 271 274 277 273 272 273 278 285 285 287 287 284 283 281 279 279 275 274 274 274 274 272 275 276 276 275 272 270 269 267 266 265 264 264
257 258 260 262 263 263 262 266 270 271 272 277 284 278 277 276 272 275 281 284 285 285 284 282 281 277 276 276 274 273 272 272 273 274 275 274 272 269 270 267 267 266 264 265
256 258 261 261 260 262 263 263 266 269 272 275 274 278 282 278 277 276 279 282 284 286 286 284 282 276 272 271 270 271 271 273 273 274 272 272 270 269 268 268 268 268 265 265
252 257 256 255 260 262 262 261 260 263 269 276 272 268 267 272 279 281 284 286 288 288 288 285 281 276 274 273 272 271 272 274 272 271 269 268 268 269 270 269 271 271 269 267
247 251 253 251 251 254 257 258 258 258 263 266 270 274 276 277 277 281 286 289 291 289 288 285 281 277 273 272 271 273 272 271 270 270 268 267 267 267 268 268 271 273 273 270
245 247 250 253 251 252 255 257 261 261 264 266 266 271 275 274 278 280 283 288 287 285 284 283 281 279 278 272 270 272 272 271 271 272 270 269 268 268 268 270 270 271 273 272
247 250 250 253 255 255 253 254 256 262 263 265 268 271 272 275 280 281 281 286 289 285 283 282 282 283 280 275 274 274 272 271 272 271 271 271 272 272 271 270 270 270 271 269
248 251 253 253 254 255 252 251 251 256 261 265 267 273 272 273 279 280 278 280 284 284 282 282 285 281 279 278 275 274 273 271 272 271 270 271 273 274 271 270 270 271 271 270
252 251 251 253 253 253 254 253 250 253 258 263 265 271 274 274 276 280 280 280 282 285 284 283 282 278 275 276 274 272 272 271 271 268 269 271 273 272 271 271 270 270 271 272
254 255 254 254 253 254 256 252 250 251 259 265 265 268 270 272 275 277 279 280 280 283 284 283 282 279 276 274 272 270 270 270 270 268 268 270 271 272 272 272 271 270 271 273
255 256 256 256 255 253 255 256 252 249 255 260 264 266 268 269 272 274 276 278 279 281 282 281 280 279 275 272 271 271 270 270 269 267 267 269 270 270 271 271 271 272 272 273
256 257 256 255 254 253 250 254 256 254 257 256 260 264 265 269 271 272 273 276 282 282 280 279 279 277 275 272 272 271 269 268 267 267 268 269 270 271 272 272 272 274 274 274
256 258 257 257 256 254 253 253 255 255 258 260 260 261 265 269 272 273 273 275 277 279 278 278 279 278 275 272 272 271 268 267 266 266 268 270 271 271 272 273 273 274 273 274
255 256 256 254 255 257 259 255 255 258 260 261 260 260 264 269 272 271 274 277 277 277 275 274 275 277 277 272 268 268 267 267 268 268 268 270 271 272 273 274 274 274 274 275
258 255 254 254 254 254 254 257 258 260 260 259 258 260 262 264 267 270 273 275 275 273 273 271 270 271 272 271 268 268 268 268 269 271 272 273 273 273 275 275 274 274 274 276
258 257 257 256 255 255 256 258 258 257 261 261 260 261 263 263 266 269 271 271 271 271 268 269 268 269 271 272 272 271 271 271 271 271 273 275 274 274 274 274 275 275 275 275
256 258 256 257 257 255 256 257 256 258 261 261 262 264 266 265 268 268 268 269 269 268 266 266 267 269 272 273 273 272 272 272 272 272 274 276 275 274 275 274 273 273 275 275
258 257 256 256 257 258 259 258 258 258 260 263 264 265 267 267 268 268 267 266 267 269 268 268 267 269 272 272 272 273 274 274 274 274 275 274 274 274 274 274 272 272 274 276
261 258 259 258 257 257 257 259 260 261 262 264 264 265 266 266 267 268 267 266 267 270 269 270 269 270 272 272 270 272 273 272 273 274 274 274 275 274 273 273 273 272 273 274
262 263 262 262 262 262 260 261 262 261 264 266 265 267 269 269 269 269 267 266 267 267 268 269 269 270 271 271 271 272 272 272 272 272 273 275 275 276 277 275 273 274 274 273
263 265 263 262 267 267 264 263 262 263 264 265 268 270 269 270 270 269 268 268 268 268 268 269 268 269 270 269 270 271 271 271 270 270 271 273 275 275 276 275 274 274 273 273
Height
5847 5849 5850 5851 5852 5853 5853 5854 5855 5856 5856 5855 5854 5853 5852 5851 5851 5849 5848 5847 5846 5845 5844 5843 5843 5842 5842 5841 5840 5839 5839 5839 5839 5838 5837 5837 5838 5838 5838 5839 5840 5840 5841 5842
5845 5846 5848 5848 5849 5849 5850 5850 5851 5852 5852 5852 5850 5849 5848 5847 5846 5845 5844 5842 5841 5840 5839 5838 5838 5837 5837 5836 5836 5835 5835 5834 5834 5834 5834 5834 5833 5835 5835 5836 5836 5837 5838 5839
5842 5844 5844 5844 5845 5846 5846 5847 5848 5848 5847 5847 5846 5845 5844 5843 5841 5841 5839 5838 5836 5835 5834 5833 5833 5833 5832 5832 5831 5831 5830 5830 5830 5830 5830 5830 5830 5830 5831 5832 5833 5834 5835 5836
5837 5840 5840 5840 5841 5842 5842 5844 5843 5842 5842 5842 5843 5840 5839 5836 5836 5835 5834 5833 5832 5830 5829 5828 5827 5827 5827 5827 5827 5827 5826 5826 5826 5826 5826 5826 5826 5827 5828 5828 5829 5830 5832 5832
5834 5836 5836 5836 5837 5838 5838 5838 5838 5838 5837 5837 5837 5836 5834 5832 5830 5830 5829 5828 5826 5826 5825 5824 5823 5822 5822 5822 5822 5822 5822 5822 5821 5821 5822 5822 5822 5823 5824 5825 5826 5827 5828 5829
5830 5831 5831 5832 5832 5833 5833 5833 5833 5833 5833 5832 5832 5831 5829 5827 5826 5826 5824 5823 5822 5821 5820 5819 5818 5817 5817 5817 5817 5817 5817 5817 5817 5818 5818 5818 5819 5819 5820 5821 5822 5823 5824 5825
5825 5826 5827 5827 5828 5829 5829 5830 5829 5829 5829 5829 5828 5825 5825 5822 5821 5821 5820 5819 5817 5816 5815 5814 5813 5813 5812 5812 5812 5812 5812 5813 5813 5813 5813 5814 5814 5815 5816 5817 5818 5819 5820 5821
5821 5822 5823 5822 5823 5824 5824 5825 5826 5825 5825 5824 5824 5822 5821 5818 5816 5816 5816 5815 5812 5810 5809 5809 5808 5808 5807 5808 5808 5808 5808 5808 5808 5809 5809 5809 5810 5810 5811 5812 5813 5814 5815 5816
5816 5817 5818 5818 5818 5819 5819 5820 5821 5821 5820 5819 5819 5818 5817 5813 5813 5812 5811 5809 5808 5806 5805 5803 5803 5803 5803 5803 5803 5803 5803 5803 5804 5804 5804 5805 5805 5806 5807 5808 5809 5809 5810 5811
5809 5811 5812 5813 5814 5814 5815 5816 5816 5815 5815 5815 5815 5813 5812 5809 5807 5807 5806 5804 5803 5802 5800 5799 5798 5798 5797 5798 5799 5799 5799 5800 5799 5799 5800 5800 5801 5802 5803 5803 5804 5805 5805 5806
5803 5804 5806 5807 5808 5810 5811 5812 5810 5811 5811 5810 5810 5811 5808 5806 5803 5801 5800 5800 5798 5797 5795 5795 5794 5793 5792 5793 5794 5795 5795 5795 5795 5795 5795 5796 5796 5797 5798 5799 5799 5800 5800 5801
5797 5798 5799 5801 5803 5804 5805 5806 5807 5806 5806 5805 5804 5806 5802 5801 5797 5795 5795 5795 5794 5792 5791 5790 5789 5789 5789 5789 5790 5790 5790 5791 5791 5791 5791 5791 5792 5793 5794 5794 5795 5795 5796 5796
5790 5792 5793 5795 5799 5799 5799 5800 5801 5801 5800 5800 5800 5800 5796 5794 5793 5791 5790 5789 5789 5787 5786 5785 5785 5785 5785 5785 5786 5786 5786 5786 5786 5786 5786 5786 5787 5788 5789 5789 5790 5790 5791 5791
5783 5784 5787 5789 5790 5791 5792 5793 5794 5795 5794 5794 5794 5793 5790 5788 5788 5787 5785 5784 5784 5783 5782 5781 5781 5781 5781 5781 5781 5781 5780 5780 5781 5781 5782 5782 5782 5783 5784 5784 5785 5785 5786 5786
5776 5778 5779 5781 5782 5784 5785 5786 5787 5788 5788 5787 5787 5786 5784 5783 5782 5781 5780 5779 5779 5778 5777 5776 5776 5775 5776 5776 5776 5775 5776 5775 5776 5776 5777 5777 5778 5778 5779 5779 5780 5780 5781 5781
5769 5771 5772 5773 5775 5777 5777 5778 5779 5781 5781 5781 5779 5779 5778 5777 5776 5776 5776 5774 5773 5772 5772 5771 5771 5770 5770 5771 5770 5770 5770 5770 5770 5771 5772 5773 5773 5774 5774 5774 5775 5775 5775 5775
5762 5764 5765 5766 5768 5769 5769 5771 5772 5773 5773 5774 5772 5773 5771 5770 5771 5771 5770 5768 5767 5767 5766 5765 5765 5765 5765 5765 5765 5765 5765 5765 5766 5766 5767 5767 5768 5768 5768 5769 5769 5769 5769 5769
5756 5757 5758 5759 5761 5761 5764 5765 5765 5765 5765 5765 5764 5764 5763 5763 5764 5764 5763 5762 5762 5762 5761 5760 5760 5759 5759 5759 5759 5759 5759 5760 5760 5761 5761 5762 5762 5762 5763 5763 5763 5763 5763 5762
5748 5749 5750 5752 5753 5754 5756 5757 5757 5758 5758 5758 5757 5758 5758 5758 5757 5756 5756 5755 5755 5755 5755 5754 5754 5754 5754 5754 5754 5754 5754 5754 5755 5755 5756 5756 5756 5756 5756 5756 5756 5756 5756 5755
5740 5742 5743 5744 5745 5747 5749 5749 5749 5751 5750 5750 5751 5751 5751 5751 5751 5751 5750 5750 5749 5749 5749 5748 5749 5748 5748 5748 5748 5749 5749 5749 5749 5749 5750 5750 5750 5750 5749 5749 5749 5748 5748 5748
5734 5734 5736 5737 5738 5738 5740 5741 5742 5744 5743 5743 5743 5744 5744 5743 5744 5744 5743 5743 5742 5742 5742 5742 5743 5743 5743 5743 5743 5743 5743 5743 5743 5743 5743 5743 5742 5742 5742 5741 5741 5741 5741 5741
5727 5728 5729 5730 5731 5732 5732 5733 5735 5735 5734 5734 5735 5735 5735 5736 5736 5736 5736 5735 5735 5735 5735 5736 5736 5736 5737 5737 5737 5736 5736 5736 5736 5736 5736 5735 5735 5735 5734 5734 5734 5734 5734 5734
5720 5721 5721 5723 5725 5724 5723 5725 5725 5726 5727 5726 5726 5727 5729 5729 5729 5729 5728 5728 5728 5727 5729 5730 5730 5730 5731 5730 5730 5730 5729 5729 5729 5729 5729 5728 5728 5728 5727 5727 5727 5727 5727 5726
5713 5714 5715 5715 5716 5716 5716 5716 5717 5717 5718 5719 5720 5720 5721 5722 5722 5721 5721 5721 5721 5722 5722 5723 5723 5724 5724 5724 5723 5723 5723 5722 5722 5722 5722 5721 5721 5721 5720 5720 5720 5720 5719 5719
5707 5708 5708 5709 5709 5709 5709 5709 5710 5710 5711 5711 5712 5713 5714 5714 5714 5713 5713 5714 5714 5715 5715 5715 5716 5716 5716 5716 5716 5716 5715 5715 5715 5715 5714 5714 5714 5713 5713 5712 5712 5712 5712 5711
5702 5702 5702 5702 5702 5703 5703 5703 5703 5704 5704 5704 5705 5705 5706 5706 5706 5706 5706 5705 5706 5706 5707 5707 5708 5708 5708 5708 5708 5708 5708 5708 5708 5707 5707 5707 5706 5706 5706 5705 5705 5705 5705 5705